TimeEST,TemperatureF,Dew PointF,Humidity,Sea Level PressureIn,VisibilityMPH,Wind Direction,Wind SpeedMPH,Gust SpeedMPH,PrecipitationIn,Events,Conditions,WindDirDegrees,DateUTC
12:41 AM,53.6,51.8,94,29.84,8.0,WNW,11.5,-,0.01,Rain,Light Rain,290,2013-12-15 05:41:00
12:52 AM,53.1,51.1,93,29.86,10.0,WNW,12.7,-,0.01,Rain,Light Rain,300,2013-12-15 05:52:00
1:36 AM,51.8,48.2,88,29.86,10.0,NW,13.8,-,0.00,,Overcast,320,2013-12-15 06:36:00
1:52 AM,50.0,46.9,89,29.85,10.0,NW,16.1,26.5,0.00,,Overcast,320,2013-12-15 06:52:00
2:07 AM,48.2,46.4,93,29.86,10.0,NW,13.8,-,N/A,,Overcast,310,2013-12-15 07:07:00
2:52 AM,48.0,45.0,89,29.87,10.0,NW,13.8,-,N/A,,Overcast,310,2013-12-15 07:52:00
3:13 AM,48.2,44.6,87,29.87,10.0,NW,16.1,-,N/A,,Overcast,310,2013-12-15 08:13:00
3:52 AM,45.0,42.1,90,29.90,10.0,WNW,12.7,-,N/A,,Overcast,290,2013-12-15 08:52:00
4:25 AM,44.6,39.2,81,29.91,10.0,WNW,13.8,23.0,N/A,,Overcast,290,2013-12-15 09:25:00
4:52 AM,43.0,39.0,86,29.92,10.0,WNW,16.1,24.2,N/A,,Overcast,300,2013-12-15 09:52:00
5:52 AM,41.0,37.0,86,29.95,10.0,NW,17.3,24.2,N/A,,Overcast,310,2013-12-15 10:52:00
6:52 AM,39.9,36.0,86,29.98,10.0,WNW,13.8,21.9,N/A,,Overcast,300,2013-12-15 11:52:00
7:52 AM,39.9,35.1,83,30.02,10.0,NW,12.7,-,0.00,,Overcast,310,2013-12-15 12:52:00
8:52 AM,39.0,33.1,79,30.05,10.0,NW,16.1,21.9,N/A,,Overcast,310,2013-12-15 13:52:00
9:52 AM,39.0,30.9,73,30.09,10.0,NNW,17.3,28.8,N/A,,Overcast,330,2013-12-15 14:52:00
10:52 AM,39.0,30.9,73,30.10,10.0,NW,12.7,23.0,N/A,,Overcast,320,2013-12-15 15:52:00
11:52 AM,39.9,30.9,70,30.09,10.0,NW,17.3,21.9,N/A,,Overcast,320,2013-12-15 16:52:00
12:52 PM,39.9,32.0,73,30.09,10.0,WNW,17.3,24.2,N/A,,Overcast,300,2013-12-15 17:52:00
1:52 PM,42.1,32.0,67,30.09,10.0,NW,16.1,-,N/A,,Mostly Cloudy,310,2013-12-15 18:52:00
2:52 PM,39.9,30.9,70,30.10,10.0,NW,10.4,-,N/A,,Mostly Cloudy,310,2013-12-15 19:52:00
3:52 PM,39.0,30.0,70,30.12,10.0,NW,16.1,21.9,N/A,,Overcast,310,2013-12-15 20:52:00
4:52 PM,37.9,28.9,70,30.15,10.0,NW,12.7,20.7,N/A,,Mostly Cloudy,320,2013-12-15 21:52:00
5:52 PM,37.0,28.9,73,30.16,10.0,NW,12.7,-,N/A,,Scattered Clouds,320,2013-12-15 22:52:00
6:52 PM,36.0,28.9,76,30.18,10.0,NW,13.8,-,N/A,,Partly Cloudy,310,2013-12-15 23:52:00
7:52 PM,36.0,28.9,76,30.19,10.0,NW,13.8,-,N/A,,Partly Cloudy,320,2013-12-16 00:52:00
8:52 PM,34.0,28.9,82,30.20,10.0,NW,11.5,-,N/A,,Partly Cloudy,320,2013-12-16 01:52:00
9:52 PM,34.0,28.0,79,30.21,10.0,NW,8.1,-,N/A,,Clear,320,2013-12-16 02:52:00
10:52 PM,33.1,28.0,82,30.21,10.0,NW,9.2,-,N/A,,Clear,320,2013-12-16 03:52:00
11:52 PM,32.0,27.0,82,30.21,10.0,NW,8.1,-,N/A,,Clear,310,2013-12-16 04:52:00